"TOA5","MOW","CPU:UNC_MeetingWaters","DataHourly"
"TIMESTAMP","SondeTempC","SpCond","DOSat","DOmg","pH","Turb","BattVolt_Min"
"TS","","","","","","",""
"","Smp","Smp","Smp","Smp","Smp","Smp","Min"
"2009-12-01 04:00:00",7.21000003815,0.00899999961257,90.0999984741,-44.0,7.88999986649,50.4000015259,12.5200004578
"2009-12-01 05:00:00",7.17999982834,0.00899999961257,91.3000030518,-42.9000015259,7.86999988556,45.0999984741,12.5100002289
"2009-12-01 06:00:00",6.17999982834,0.00899999961257,91.0999984741,-42.0,7.86000013351,32.2999992371,12.5
"2009-12-01 07:00:00",5.90999984741,0.00899999961257,89.3000030518,-41.0999984741,7.84000015259,24.5,12.4799995422
"2009-12-01 08:00:00",4.94999980927,0.00899999961257,93.5,-40.0999984741,7.82000017166,16.8999996185,12.4799995422
"2009-12-01 09:00:00",4.21999979019,0.00899999961257,92.5,-38.9000015259,7.80000019073,14.6999998093,12.5200004578
"2009-12-01 10:00:00",3.50999999046,0.00899999961257,92.5999984741,-37.7999992371,7.78999996185,11.6999998093,12.5100002289
"2009-12-01 11:00:00",2.95000004768,0.00899999961257,93.5,-36.5,7.76000022888,7.69999980927,12.5
"2009-12-01 12:00:00",3.0,0.00899999961257,97.5999984741,-35.7000007629,7.75,5.80000019073,12.5
"2009-12-01 13:00:00",4.11000013351,0.00899999961257,96.9000015259,-35.0,7.73000001907,2.5,12.529999733
"2009-12-01 14:00:00",6.15999984741,0.00899999961257,101.099998474,-35.2999992371,7.73000001907,-0.40000000596,12.6700000763
"2009-12-01 15:00:00",6.94000005722,0.00899999961257,90.9000015259,-36.0999984741,7.73999977112,12.1999998093,12.9600000381
"2009-12-01 16:00:00",10.3599996567,0.00700000021607,110.599998474,-18.6000003815,7.42000007629,-1.5,12.970000267
"2009-12-01 17:00:00",11.9899997711,0.00499999988824,102.400001526,30.7000007629,6.53000020981,0.20000000298,13.529999733
"2009-12-01 18:00:00",11.8500003815,0.00400000018999,102.199996948,44.2000007629,6.28999996185,3.70000004768,13.2600002289
"2009-12-01 19:00:00",10.9300003052,0.00300000002608,101.900001526,49.0999984741,6.19999980927,2.79999995232,13.1000003815
"2009-12-01 20:00:00",10.8299999237,0.00300000002608,99.3000030518,45.4000015259,6.26999998093,2.40000009537,13.0900001526
"2009-12-01 21:00:00",9.63000011444,0.00300000002608,92.6999969482,39.0999984741,6.38000011444,3.40000009537,12.9499998093
"2009-12-01 22:00:00",8.85999965668,0.00300000002608,91.0999984741,34.5,6.46000003815,4.40000009537,12.8900003433
"2009-12-01 23:00:00",8.05000019073,0.00300000002608,89.0999984741,20.2000007629,6.71999979019,21.7999992371,12.8699998856
"2009-12-02 00:00:00",7.94999980927,0.00300000002608,92.1999969482,19.2000007629,6.73999977112,1.39999997616,12.8299999237
"2009-12-02 01:00:00",7.23000001907,0.00300000002608,96.3000030518,16.5,6.78999996185,-0.699999988079,12.8100004196
"2009-12-02 02:00:00",6.78000020981,0.00300000002608,95.5999984741,17.7999992371,6.76000022888,12.8000001907,12.7899999619
"2009-12-02 03:00:00",6.82000017166,0.00300000002608,96.9000015259,17.8999996185,6.76000022888,-1.89999997616,12.7700004578
"2009-12-02 04:00:00",6.94000005722,0.00300000002608,96.9000015259,18.7000007629,6.73999977112,9.39999961853,12.7600002289
"2009-12-02 05:00:00",6.82999992371,0.00400000018999,102.199996948,20.8999996185,6.69999980927,4.90000009537,12.7399997711
"2009-12-02 06:00:00",6.94999980927,0.00400000018999,100.5,10.0,6.90000009537,11.1999998093,12.720000267
"2009-12-02 07:00:00",6.48000001907,0.00400000018999,92.1999969482,13.8000001907,6.82999992371,20.2000007629,12.7100000381
"2009-12-02 08:00:00",7.05999994278,0.00400000018999,87.9000015259,7.30000019073,6.94999980927,11.3999996185,12.6999998093
"2009-12-02 09:00:00",6.92999982834,0.00400000018999,96.3000030518,0.300000011921,7.07999992371,6.59999990463,12.6800003052
"2009-12-02 10:00:00",7.40999984741,0.00400000018999,101.400001526,1.39999997616,7.05999994278,12.8000001907,12.6599998474
"2009-12-02 11:00:00",7.32000017166,0.00400000018999,97.5,0.300000011921,7.07999992371,-2.20000004768,12.6099996567
"2009-12-02 12:00:00",10.1599998474,0.303999990225,92.5,-45.5,7.90999984741,27.7999992371,12.6000003815
"2009-12-02 13:00:00",10.9499998093,0.118000000715,91.0,-40.0999984741,7.80999994278,27.8999996185,12.6499996185
"2009-12-02 14:00:00",9.81999969482,0.0109999999404,91.0,-48.7999992371,7.96999979019,24.6000003815,12.75
"2009-12-02 15:00:00",10.25,0.0109999999404,90.1999969482,-47.4000015259,7.94000005722,63.0,13.0699996948
"2009-12-02 16:00:00",12.25,0.140000000596,90.4000015259,-37.2999992371,7.75,117.5,12.9799995422
"2009-12-02 17:00:00",12.1899995804,0.0810000002384,94.8000030518,-33.5,7.67999982834,190.199996948,12.8400001526
"2009-12-02 18:00:00",11.9300003052,0.0570000000298,96.0999984741,-32.9000015259,7.67999982834,178.800003052,12.8999996185
"2009-12-02 19:00:00",12.3299999237,0.0750000029802,94.3000030518,-37.5,7.76000022888,205.899993896,12.8299999237
"2009-12-02 20:00:00",12.9200000763,0.103000000119,93.8000030518,-34.5999984741,7.69999980927,122.099998474,12.75
"2009-12-02 21:00:00",13.4799995422,0.101999998093,93.0,-35.5999984741,7.71999979019,71.0999984741,12.6700000763
"2009-12-02 22:00:00",13.3199996948,0.0670000016689,95.3000030518,-33.2999992371,7.67999982834,123.099998474,12.6199998856
"2009-12-02 23:00:00",14.3500003815,0.0320000015199,97.5,-54.4000015259,8.05000019073,535.400024414,12.6199998856
"2009-12-03 00:00:00",13.7899999619,0.0850000008941,95.3000030518,-21.5,7.46999979019,270.299987793,12.5900001526
"2009-12-03 01:00:00",14.8699998856,0.0640000030398,96.1999969482,-27.7999992371,7.57999992371,272.799987793,12.5799999237
"2009-12-03 02:00:00",14.9600000381,0.0719999969006,95.9000015259,-20.2000007629,7.44000005722,362.600006104,12.5699996948
"2009-12-03 03:00:00",15.0399999619,0.0989999994636,95.0,-23.3999996185,7.5,220.100006104,12.5600004196
"2009-12-03 04:00:00",14.8100004196,0.125,94.4000015259,-19.5,7.42999982834,164.0,12.5699996948
"2009-12-03 05:00:00",14.7700004578,0.148000001907,93.5999984741,-24.2000007629,7.51000022888,144.199996948,12.5600004196
"2009-12-03 06:00:00",14.6199998856,0.16400000453,93.4000015259,-26.7999992371,7.55999994278,117.400001526,12.5500001907
"2009-12-03 07:00:00",14.5699996948,0.17499999702,93.5,-28.8999996185,7.59999990463,106.800003052,12.5399999619
"2009-12-03 08:00:00",14.5100002289,0.182999998331,93.3000030518,-30.0,7.61999988556,81.4000015259,12.5399999619
"2009-12-03 09:00:00",14.3699998856,0.189999997616,93.3000030518,-30.7999992371,7.63000011444,74.8000030518,12.5200004578
"2009-12-03 10:00:00",14.2299995422,0.199000000954,93.3000030518,-31.6000003815,7.65000009537,58.2000007629,12.5100002289
"2009-12-03 11:00:00",14.1099996567,0.212999999523,93.0999984741,-32.2999992371,7.65999984741,59.0,12.5399999619
"2009-12-03 12:00:00",13.9899997711,0.216000005603,93.4000015259,-33.0999984741,7.67000007629,52.7999992371,12.5399999619
"2009-12-03 13:00:00",14.0,0.218999996781,93.8000030518,-34.4000015259,7.69999980927,81.8000030518,12.5500001907
"2009-12-03 14:00:00",14.1499996185,0.221000000834,94.5,-36.2999992371,7.73000001907,164.600006104,12.6999998093
"2009-12-03 15:00:00",14.3299999237,0.218999996781,94.0999984741,-37.4000015259,7.75,253.5,13.029999733
"2009-12-03 16:00:00",14.6700000763,0.21400000155,94.4000015259,-35.5999984741,7.71999979019,211.5,13.0399999619
"2009-12-03 17:00:00",15.0900001526,0.231999993324,94.3000030518,-36.7000007629,7.73999977112,156.399993896,13.1400003433
"2009-12-03 18:00:00",15.3000001907,0.229000002146,93.9000015259,-37.2999992371,7.75,201.699996948,13.0900001526
"2009-12-03 19:00:00",15.1000003815,0.231999993324,93.4000015259,-37.7999992371,7.75,126.300003052,12.9899997711
"2009-12-03 20:00:00",14.8299999237,0.180000007153,93.0,-38.0,7.76000022888,178.100006104,12.9399995804
"2009-12-03 21:00:00",14.5600004196,0.149000003934,92.9000015259,-37.7000007629,7.75,147.5,12.8699998856
"2009-12-03 22:00:00",14.2899999619,0.136999994516,92.8000030518,-37.2999992371,7.75,104.699996948,12.8299999237
"2009-12-03 23:00:00",13.9499998093,0.133000001311,92.6999969482,-36.7999992371,7.73999977112,80.0999984741,12.8000001907
"2009-12-04 00:00:00",13.5900001526,0.136000007391,92.9000015259,-36.9000015259,7.73999977112,57.0999984741,12.779999733
"2009-12-04 01:00:00",13.2600002289,0.0260000005364,92.8000030518,-36.5,7.73999977112,38.9000015259,12.779999733
"2009-12-04 02:00:00",12.9499998093,0.0240000002086,93.0,-36.2000007629,7.73000001907,34.0,12.7600002289
"2009-12-04 03:00:00",12.2299995422,0.0120000001043,93.3000030518,-36.9000015259,7.75,31.7999992371,12.7100000381
"2009-12-04 04:00:00",11.3800001144,0.0120000001043,94.0,-45.7999992371,7.90999984741,27.7000007629,12.6800003052
"2009-12-04 05:00:00",9.68999958038,0.0120000001043,96.0999984741,-53.2000007629,8.05000019073,32.2000007629,12.6700000763
"2009-12-04 06:00:00",8.89000034332,0.0120000001043,96.6999969482,-50.5999984741,8.0,25.5,12.6700000763
"2009-12-04 07:00:00",8.09000015259,0.0120000001043,97.6999969482,-47.9000015259,7.96000003815,18.8999996185,12.6499996185
"2009-12-04 08:00:00",7.19000005722,0.0120000001043,98.5,-46.7000007629,7.94000005722,16.2999992371,12.6400003433
"2009-12-04 09:00:00",6.90000009537,0.0120000001043,98.8000030518,-43.5,7.88000011444,13.5,12.6199998856
"2009-12-04 10:00:00",6.61999988556,0.0120000001043,98.8000030518,-41.2000007629,7.84000015259,11.1999998093,12.6000003815
"2009-12-04 11:00:00",6.15000009537,0.0120000001043,99.3000030518,-37.0,7.76000022888,10.1000003815,12.5900001526
"2009-12-04 12:00:00",5.55999994278,0.0120000001043,100.900001526,-35.2000007629,7.73000001907,9.5,12.5900001526
"2009-12-04 13:00:00",7.07999992371,0.0120000001043,99.5999984741,-37.0,7.76000022888,9.39999961853,12.6199998856
"2009-12-04 14:00:00",8.47999954224,0.0120000001043,98.0,-36.0,7.73999977112,18.6000003815,12.8800001144
"2009-12-04 15:00:00",9.89999961853,0.0109999999404,99.1999969482,-29.8999996185,7.63000011444,6.90000009537,13.0500001907
"2009-12-04 16:00:00",11.8999996185,0.0109999999404,97.4000015259,-23.5,7.51000022888,150.199996948,13.1099996567
"2009-12-04 17:00:00",11.7299995422,0.00999999977648,98.3000030518,-2.59999990463,7.13000011444,162.899993896,13.4899997711
"2009-12-04 18:00:00",11.75,0.00899999961257,98.0,3.29999995232,7.03000020981,142.600006104,13.3199996948
"2009-12-04 19:00:00",11.4799995422,0.00800000037998,96.0999984741,8.60000038147,6.92999982834,439.299987793,13.1400003433
"2009-12-04 20:00:00",11.3999996185,0.00800000037998,95.5999984741,7.5,6.94999980927,370.0,13.0600004196
"2009-12-04 21:00:00",10.8400001526,0.00800000037998,96.0,11.3999996185,6.88000011444,266.299987793,12.9300003052
"2009-12-04 22:00:00",10.9300003052,0.00800000037998,96.0,11.8000001907,6.86999988556,214.5,12.8800001144
"2009-12-04 23:00:00",10.470000267,0.00800000037998,95.9000015259,14.8999996185,6.82000017166,87.9000015259,12.8500003815
"2009-12-05 00:00:00",10.4099998474,0.00800000037998,95.6999969482,14.1000003815,6.82999992371,32.5,12.8299999237
"2009-12-05 01:00:00",10.1800003052,0.00800000037998,96.0999984741,14.3999996185,6.82999992371,16.1000003815,12.7899999619
"2009-12-05 02:00:00",10.5,0.00800000037998,96.1999969482,15.3000001907,6.80999994278,9.89999961853,12.779999733
"2009-12-05 03:00:00",10.3500003815,0.00800000037998,96.4000015259,15.6999998093,6.80000019073,7.69999980927,12.75
"2009-12-05 04:00:00",10.1999998093,0.00800000037998,95.1999969482,15.3000001907,6.80999994278,8.30000019073,12.7100000381
"2009-12-05 05:00:00",10.3900003433,0.00800000037998,95.3000030518,14.3999996185,6.82999992371,5.80000019073,12.6999998093
"2009-12-05 06:00:00",10.1700000763,0.00800000037998,95.5999984741,17.3999996185,6.76999998093,5.0,12.6899995804
"2009-12-05 07:00:00",10.1899995804,0.00800000037998,95.5,16.5,6.78999996185,5.59999990463,12.6599998474
"2009-12-05 08:00:00",10.2600002289,0.00800000037998,94.0,15.8999996185,6.80000019073,10.0,12.6400003433
"2009-12-05 09:00:00",12.6099996567,0.254000008106,92.4000015259,-43.0,7.84999990463,241.399993896,12.6400003433
"2009-12-05 10:00:00",12.7100000381,0.134000003338,93.8000030518,-38.7000007629,7.78000020981,149.199996948,12.6300001144
"2009-12-05 11:00:00",12.5399999619,0.112000003457,92.6999969482,-32.5999984741,7.67000007629,55.7000007629,12.5900001526
"2009-12-05 12:00:00",12.470000267,0.120999999344,93.0999984741,-29.8999996185,7.61999988556,34.9000015259,12.5900001526
"2009-12-05 13:00:00",12.4899997711,0.119000002742,94.3000030518,-31.3999996185,7.65000009537,51.7999992371,12.5900001526
"2009-12-05 14:00:00",12.2100000381,0.0890000015497,95.0999984741,-31.8999996185,7.65999984741,88.9000015259,12.5600004196
"2009-12-05 15:00:00",12.1000003815,0.104000002146,94.4000015259,-29.7000007629,7.61999988556,51.4000015259,12.6599998474
"2009-12-05 16:00:00",12.25,0.119999997318,94.0999984741,-30.2000007629,7.63000011444,41.7999992371,12.8299999237
"2009-12-05 17:00:00",12.3800001144,0.103000000119,93.8000030518,-31.7999992371,7.65000009537,31.6000003815,12.8900003433
"2009-12-05 18:00:00",12.3999996185,0.082000002265,93.6999969482,-32.5,7.67000007629,26.6000003815,12.9399995804
"2009-12-05 18:00:00",12.3999996185,0.082000002265,93.6999969482,-32.5,7.67000007629,26.6000003815,12.9399995804
"2009-12-05 18:00:00",12.3999996185,0.082000002265,93.6999969482,-32.5,7.67000007629,26.6000003815,12.9399995804
"2009-12-05 19:00:00",12.2700004578,0.0240000002086,93.3000030518,-32.2000007629,7.65999984741,23.1000003815,12.8400001526
"2009-12-05 19:00:00",12.2700004578,0.0240000002086,93.3000030518,-32.2000007629,7.65999984741,23.1000003815,12.8400001526
"2009-12-05 20:00:00",11.9799995422,0.0140000004321,93.1999969482,-33.7000007629,7.69000005722,21.3999996185,12.6800003052
"2009-12-05 20:00:00",11.9799995422,0.0140000004321,93.1999969482,-33.7000007629,7.69000005722,21.3999996185,12.6800003052
"2009-12-05 21:00:00",11.4399995804,0.00999999977648,93.1999969482,-35.4000015259,7.71999979019,17.6000003815,12.6000003815
"2009-12-05 21:00:00",11.4399995804,0.00999999977648,93.1999969482,-35.4000015259,7.71999979019,17.6000003815,12.6000003815
"2009-12-05 22:00:00",10.4399995804,0.00899999961257,93.5,-46.5999984741,7.92999982834,14.0,12.5399999619
"2009-12-05 22:00:00",10.4399995804,0.00899999961257,93.5,-46.5999984741,7.92999982834,14.0,12.5399999619
"2009-12-05 23:00:00",8.94999980927,0.00899999961257,95.3000030518,-49.2999992371,7.98000001907,11.8999996185,12.5100002289
"2009-12-05 23:00:00",8.94999980927,0.00899999961257,95.3000030518,-49.2999992371,7.98000001907,11.8999996185,12.5100002289
"2009-12-06 00:00:00",8.27999973297,0.00899999961257,95.5999984741,-48.0,7.96000003815,10.8999996185,12.5
"2009-12-06 00:00:00",8.27999973297,0.00899999961257,95.5999984741,-48.0,7.96000003815,10.8999996185,12.5
"2009-12-06 00:00:00",8.27999973297,0.00899999961257,95.5999984741,-48.0,7.96000003815,10.8999996185,12.5
"2009-12-06 00:00:00",8.27999973297,0.00899999961257,95.5999984741,-48.0,7.96000003815,10.8999996185,12.5
"2009-12-06 01:00:00",8.11999988556,0.00899999961257,96.0999984741,-45.5,7.90999984741,10.0,12.4899997711
"2009-12-06 01:00:00",8.11999988556,0.00899999961257,96.0999984741,-45.5,7.90999984741,10.0,12.4899997711
"2009-12-06 02:00:00",8.01000022888,0.00899999961257,96.5,-41.9000015259,7.84999990463,8.10000038147,12.4899997711
"2009-12-06 02:00:00",8.01000022888,0.00899999961257,96.5,-41.9000015259,7.84999990463,8.10000038147,12.4899997711
"2009-12-06 03:00:00",6.78000020981,0.00899999961257,96.8000030518,-38.2000007629,7.78000020981,6.69999980927,12.470000267
"2009-12-06 03:00:00",6.78000020981,0.00899999961257,96.8000030518,-38.2000007629,7.78000020981,6.69999980927,12.470000267
"2009-12-06 04:00:00",6.15000009537,0.00899999961257,97.6999969482,-34.5999984741,7.71999979019,5.5,12.470000267
"2009-12-06 04:00:00",6.15000009537,0.00899999961257,97.6999969482,-34.5999984741,7.71999979019,5.5,12.470000267
"2009-12-06 05:00:00",5.67999982834,0.00899999961257,98.6999969482,-31.5,7.67000007629,4.80000019073,12.4399995804
"2009-12-06 05:00:00",5.67999982834,0.00899999961257,98.6999969482,-31.5,7.67000007629,4.80000019073,12.4399995804
"2009-12-06 06:00:00",5.05999994278,0.00899999961257,99.8000030518,-29.2999992371,7.61999988556,4.69999980927,12.4399995804
"2009-12-06 06:00:00",5.05999994278,0.00899999961257,99.8000030518,-29.2999992371,7.61999988556,4.69999980927,12.4399995804
"2009-12-06 07:00:00",4.48999977112,0.00899999961257,100.599998474,-28.3999996185,7.61000013351,3.5,12.4300003052
"2009-12-06 07:00:00",4.48999977112,0.00899999961257,100.599998474,-28.3999996185,7.61000013351,3.5,12.4300003052
"2009-12-06 08:00:00",3.91000008583,0.00899999961257,101.099998474,-25.6000003815,7.55999994278,3.40000009537,12.4399995804
"2009-12-06 08:00:00",3.91000008583,0.00899999961257,101.099998474,-25.6000003815,7.55999994278,3.40000009537,12.4399995804
"2009-12-06 09:00:00",3.71000003815,0.00899999961257,101.400001526,-23.8999996185,7.53000020981,3.40000009537,12.4200000763
"2009-12-06 09:00:00",3.71000003815,0.00899999961257,101.400001526,-23.8999996185,7.53000020981,3.40000009537,12.4200000763
"2009-12-06 10:00:00",3.20000004768,0.00899999961257,101.800003052,-19.3999996185,7.44999980927,2.90000009537,12.4300003052
"2009-12-06 10:00:00",3.20000004768,0.00899999961257,101.800003052,-19.3999996185,7.44999980927,2.90000009537,12.4300003052
"2009-12-06 11:00:00",3.15000009537,0.00899999961257,101.400001526,-16.2000007629,7.38999986649,3.20000004768,12.4300003052
"2009-12-06 11:00:00",3.15000009537,0.00899999961257,101.400001526,-16.2000007629,7.38999986649,3.20000004768,12.4300003052
"2009-12-06 12:00:00",2.68000006676,0.00899999961257,101.900001526,-11.6000003815,7.30000019073,1.89999997616,12.4300003052
"2009-12-06 12:00:00",2.68000006676,0.00899999961257,101.900001526,-11.6000003815,7.30000019073,1.89999997616,12.4300003052
"2009-12-06 13:00:00",3.41000008583,0.00899999961257,101.199996948,-11.8999996185,7.30999994278,1.60000002384,12.470000267
"2009-12-06 13:00:00",3.41000008583,0.00899999961257,101.199996948,-11.8999996185,7.30999994278,1.60000002384,12.470000267
"2009-12-06 14:00:00",4.42999982834,0.00899999961257,101.099998474,-8.19999980927,7.23999977112,2.40000009537,12.7899999619
"2009-12-06 14:00:00",4.42999982834,0.00899999961257,101.099998474,-8.19999980927,7.23999977112,2.40000009537,12.7899999619
"2009-12-06 15:00:00",4.96000003815,0.00899999961257,101.900001526,-2.29999995232,7.13000011444,5.80000019073,13.0600004196
"2009-12-06 15:00:00",4.96000003815,0.00899999961257,101.900001526,-2.29999995232,7.13000011444,5.80000019073,13.0600004196
"2009-12-06 15:00:00",4.96000003815,0.00899999961257,101.900001526,-2.29999995232,7.13000011444,5.80000019073,13.0600004196
"2009-12-06 15:00:00",4.96000003815,0.00899999961257,101.900001526,-2.29999995232,7.13000011444,5.80000019073,13.0600004196
"2009-12-06 15:00:00",4.96000003815,0.00899999961257,101.900001526,-2.29999995232,7.13000011444,5.80000019073,13.0600004196
"2009-12-06 15:00:00",4.96000003815,0.00899999961257,101.900001526,-2.29999995232,7.13000011444,5.80000019073,13.0600004196
"2009-12-06 16:00:00",7.32999992371,0.00800000037998,103.199996948,9.69999980927,6.90999984741,2.40000009537,13.220000267
"2009-12-06 16:00:00",7.32999992371,0.00800000037998,103.199996948,9.69999980927,6.90999984741,2.40000009537,13.220000267
"2009-12-06 17:00:00",6.86000013351,0.00700000021607,104.0,31.2000007629,6.51999998093,5.80000019073,13.6599998474
"2009-12-06 17:00:00",6.86000013351,0.00700000021607,104.0,31.2000007629,6.51999998093,5.80000019073,13.6599998474
"2009-12-06 18:00:00",7.46000003815,0.00600000005215,103.0,47.7000007629,6.21999979019,5.40000009537,13.6199998856
"2009-12-06 18:00:00",7.46000003815,0.00600000005215,103.0,47.7000007629,6.21999979019,5.40000009537,13.6199998856
"2009-12-06 19:00:00",7.42000007629,0.00499999988824,102.099998474,56.5999984741,6.05999994278,2.5,13.4899997711
"2009-12-06 19:00:00",7.42000007629,0.00499999988824,102.099998474,56.5999984741,6.05999994278,2.5,13.4899997711
"2009-12-06 20:00:00",7.28999996185,0.00499999988824,101.599998474,56.9000015259,6.05000019073,0.800000011921,13.220000267
"2009-12-06 20:00:00",7.28999996185,0.00499999988824,101.599998474,56.9000015259,6.05000019073,0.800000011921,13.220000267
"2009-12-06 21:00:00",6.30000019073,0.00400000018999,100.300003052,60.5,5.98000001907,0.40000000596,12.9600000381
"2009-12-06 21:00:00",6.30000019073,0.00400000018999,100.300003052,60.5,5.98000001907,0.40000000596,12.9600000381
"2009-12-06 22:00:00",5.82999992371,0.00400000018999,99.6999969482,52.2000007629,6.13000011444,0.600000023842,12.8999996185
"2009-12-06 23:00:00",5.71000003815,0.00400000018999,98.6999969482,48.0999984741,6.21000003815,1.60000002384,12.8800001144
"2009-12-06 23:00:00",5.71000003815,0.00400000018999,98.6999969482,48.0999984741,6.21000003815,1.60000002384,12.8800001144
"2009-12-06 23:00:00",5.71000003815,0.00400000018999,98.6999969482,48.0999984741,6.21000003815,1.60000002384,12.8800001144
"2009-12-06 23:00:00",5.71000003815,0.00400000018999,98.6999969482,48.0999984741,6.21000003815,1.60000002384,12.8800001144
"2009-12-06 23:00:00",5.71000003815,0.00400000018999,98.6999969482,48.0999984741,6.21000003815,1.60000002384,12.8800001144
"2009-12-06 23:00:00",5.71000003815,0.00400000018999,98.6999969482,48.0999984741,6.21000003815,1.60000002384,12.8800001144
"2009-12-06 23:00:00",5.71000003815,0.00400000018999,98.6999969482,48.0999984741,6.21000003815,1.60000002384,12.8800001144
"2009-12-07 00:00:00",5.44999980927,0.00400000018999,98.5999984741,41.7000007629,6.32000017166,0.10000000149,12.8299999237
"2009-12-07 00:00:00",5.44999980927,0.00400000018999,98.5999984741,41.7000007629,6.32000017166,0.10000000149,12.8299999237
"2009-12-07 01:00:00",4.71999979019,0.00400000018999,99.6999969482,40.2999992371,6.34999990463,0.699999988079,12.8100004196
"2009-12-07 01:00:00",4.71999979019,0.00400000018999,99.6999969482,40.2999992371,6.34999990463,0.699999988079,12.8100004196
"2009-12-07 02:00:00",3.84999990463,0.00400000018999,100.5,37.0,6.40000009537,1.89999997616,12.7700004578
"2009-12-07 02:00:00",3.84999990463,0.00400000018999,100.5,37.0,6.40000009537,1.89999997616,12.7700004578
"2009-12-07 03:00:00",4.5,0.00499999988824,99.9000015259,24.7000007629,6.63000011444,4.69999980927,12.75
"2009-12-07 03:00:00",4.5,0.00499999988824,99.9000015259,24.7000007629,6.63000011444,4.69999980927,12.75
"2009-12-07 04:00:00",3.70000004768,0.00400000018999,101.800003052,29.5,6.53999996185,1.89999997616,12.7399997711
"2009-12-07 04:00:00",3.70000004768,0.00400000018999,101.800003052,29.5,6.53999996185,1.89999997616,12.7399997711
"2009-12-07 05:00:00",3.74000000954,0.00499999988824,101.900001526,28.2000007629,6.57000017166,0.699999988079,12.720000267
"2009-12-07 05:00:00",3.74000000954,0.00499999988824,101.900001526,28.2000007629,6.57000017166,0.699999988079,12.720000267
"2009-12-07 06:00:00",2.99000000954,0.00499999988824,102.599998474,32.2999992371,6.48999977112,0.0,12.6999998093
"2009-12-07 06:00:00",2.99000000954,0.00499999988824,102.599998474,32.2999992371,6.48999977112,0.0,12.6999998093
"2009-12-07 07:00:00",2.6400001049,0.00499999988824,102.699996948,32.5,6.48000001907,-0.699999988079,12.6800003052
"2009-12-07 07:00:00",2.6400001049,0.00499999988824,102.699996948,32.5,6.48000001907,-0.699999988079,12.6800003052
"2009-12-07 08:00:00",2.41000008583,0.00499999988824,101.300003052,33.7999992371,6.46000003815,-0.20000000298,12.6599998474
"2009-12-07 08:00:00",2.41000008583,0.00499999988824,101.300003052,33.7999992371,6.46000003815,-0.20000000298,12.6599998474
"2009-12-07 09:00:00",2.28999996185,0.00499999988824,102.699996948,34.2000007629,6.44999980927,-1.10000002384,12.6300001144
"2009-12-07 09:00:00",2.28999996185,0.00499999988824,102.699996948,34.2000007629,6.44999980927,-1.10000002384,12.6300001144